Moncton/Greater Moncton International Airport

Airport
ICAO code: 
CYQM
IATA Code: 
YQM
Summary
ICAO Region: 
NAM
Territory: 
Location: 
Dieppe, New Brunswick,
Serving: 
Moncton
Elevation: 
232 ft
Coordinates: 
Aerial View: 
46° 6' 43.999" N, 64° 40' 43" W
Metar
Observation
CYQM 200900Z 27004KT 15SM BKN094 09/04 A2991 RMK AC7 PRESRR SLP133
Station
Moncton, N. B.
Date/Time
2022-05-20 09:00:00
Wind direction
270°
Wind speed
04 kts
Lowest cloud amount
broken clouds
Temperature
9°C
Dew point
4°C
Humidity
70%
Weather condition
n/a

Description

Moncton/Greater Moncton International Airport is located in the city of Dieppe 4 nm east northeast of downtown Moncton, New Brunswick, Canada

Climatology

Humid Continental climate (Köppen climate classification Dfb) - Variable weather patterns and a large seasonal temperature variance. Summers are often warm and humid with frequent thunderstorms and winters can be very cold with frequent snowfall and persistent snow cover.

Runways

Designator Length Width Surface Rops
6/24 1875 61 ASP Yes/Yes
11/29 2438 61 ASP Yes/Yes
Airport map: 
Aerial View: 

Accidents and Serious Incidents at or in the vicinity of CYQM

SKYbrary Partners:

Safety knowledge contributed by: